Location: Rounton
(54.4000°N, 1.3500°W)
Time: 02:57:51
(UTC+01:00)

Vanguard 3 - Pass Details

Date: 26 April 2024
Orbit: 509 x 3233 km, 33.3° (Epoch: 23 May)

Event Time Altitude Azimuth Distance (km) Brightness Sun altitude
Exits shadow 01:01:01 12° 140° (SE) 5,540 10.9 -22.0°
Drops below altitude 10° 01:04:32 10° 127° (SE) 5,458 11.0 -22.0°
Sets 01:12:30 0° 100° (E) 5,831 11.4 -22.0°
